Weather in Asheville

United States     35°36′02″N   82°33′14″W
temp.,
°C
wind,
m/s
gust,
m/s
humid.,
%
clouds,
%
prec.,
mm/h
press.,
hPa
HPBL,
m
17 may, mon
mon1723:00+13ese118685 0.0 102431
02:00+10se1197100 0.0 102414
05:00+9ese009657 0.0 102410
08:00+12se118850 0.0 102588
11:00+19sse235672 0.0 10241072
14:00+20s3456100 0.1 10221275
17:00+19s3565100 0.3 1022487
20:00+16se238574 0.6 102353
18 may, tue
tue1823:00+13ese2193100 0.1 102528
02:00+12ese2398100 0.3 102572
05:00+11ese119866 0.0 102515
08:00+13se129595 0.0 1026116
11:00+19se3465100 0.0 1026989
14:00+21sse4554100 0.0 10251640
17:00+19sse3565100 0.1 1024684
20:00+15sse1292100 1.1 102528
19 may, wed
wed1923:00+14se119488 0.2 102615
02:00+14ese1194100 0.2 102617
05:00+13se1194100 0.0 102620
08:00+14se1194100 0.0 102834
11:00+18se1379100 0.2 1028570
14:00+22se34599 1.2 10271318
17:00+22se445811 0.8 10251377
20:00+16se239311 1.9 102678
20 may, thu
thu2023:00+13ne01955 0.0 102811
02:00+13e119543 0.0 102811
05:00+12ese11973 0.0 102912
08:00+14ese01966 0.0 103088
11:00+21se34535 0.0 10291420
14:00+24se44395 0.0 10281878
17:00+24se33405 0.0 10271949
20:00+18ese24724 0.0 102869
21 may, fri
fri2123:00+13ese118257 0.0 103011
02:00+12ese01875 0.0 102910
05:00+11nnw00915 0.0 103010
08:00+14nw117874 0.0 103293
11:00+23sw014662 0.0 10311127
14:00+26s223291 0.0 10282072
17:00+27s223238 0.0 10262319
20:00+19sse11725 0.0 102712